Regional Weather Roundup
Issued by NWS

Home | Current Version | Previous Version | Text Only | Print | Product List | Glossary Off
Versions: 1 2 3 4 5 6 7 8 9 10 11 12 13 14 15 16 17 18 19 20 21 22 23 24 25 26 27 28 29 30 31 32 33 34 35 36 37 38 39 40 41 42 43 44 45 46 47 48 49 50

000
ASUS43 KIND 061709
RWRIN

WEATHER ROUNDUP FOR INDIANA
NATIONAL WEATHER SERVICE INDIANAPOLIS IN
100 PM EDT MON JUL 06 2015

NOTE: "FAIR" INDICATES FEW OR NO CLOUDS BELOW 12,000 FEET WITH NO
SIGNIFICANT WEATHER AND/OR OBSTRUCTIONS TO VISIBILITY.

* - STATION DOES NOT REPORT WEATHER SUCH AS PRECIPITATION OR FOG.

+ - STATION NOT QUALITY CONTROLLED BY THE NATIONAL WEATHER SERVICE.
    USE DATA WITH CAUTION...ESPECIALLY DEWPOINT AND RELATIVE
    HUMIDITY OBSERVATIONS.

INZ001>003-010>013-019-020-061800-
NORTHWEST INDIANA

CITY           SKY/WX    TMP DP  RH WIND       PRES   REMARKS
GARY /AIRPORT/ MOSUNNY  N/A N/A N/A S9        29.99
KNOX *+        MOSUNNY   81  63  54 SW12      30.02S
LA PORTE +     MOSUNNY   82  67  60 SW9       30.02F
MICHIGAN CITY+ MOSUNNY   81  64  57 S13       30.00F
MONTICELLO +   SUNNY     82  69  65 SW12      30.03F
RENSSELAER +   MOSUNNY   81  70  69 S13       30.02F
VALPARAISO     MOSUNNY   81  67  62 S10G22    30.01F

$$

LMZ046-743>745-061800-
SOUTHERN LAKE MICHIGAN

STATION/POSITION TIME  TEMP    WIND        PRES    WAVE
                       AIR SEA DIR/SP/G            HT
                 (UTC) (F)     (DEG/KT/KT) (MB)    (FT)
BURNS HARBOR     1700   80     190/ 15/ 20 1015.9F
MICHIGAN CITY    1700   79     160/ 13/ 17   N/A
5NW MICH CITY    1700   75 67  190/ 10/ 14   N/A     1

$$

INZ004-005-014>016-021>024-061800-
NORTH CENTRAL INDIANA

CITY           SKY/WX    TMP DP  RH WIND       PRES   REMARKS
GOSHEN         MOSUNNY   80  69  69 SW14      30.04S
LOGANSPORT +   MOSUNNY   81  61  50 SW10      30.06S
PERU/GRISSOM   MOSUNNY   81  69  67 SW13      30.05S
ROCHESTER +    SUNNY     82  70  65 SW9       30.05F
SOUTH BEND     MOSUNNY   82  65  56 SW12      30.03F
WARSAW +         N/A     81  68  65 SW6       30.06S

$$

INZ006>009-017-018-025>027-061800-
NORTHEAST INDIANA

CITY           SKY/WX    TMP DP  RH WIND       PRES   REMARKS
ANGOLA *+        N/A     81  66  61 SW8       30.05S
AUBURN +       MOSUNNY   81  63  54 SW5       30.06S
FORT WAYNE     PTSUNNY   81  67  62 SW12      30.06S
HUNTINGTON +   PTSUNNY   80  67  63 W10       30.06S

$$

INZ028-029-035-036-043>045-051>053-061800-
WEST CENTRAL INDIANA

CITY           SKY/WX    TMP DP  RH WIND       PRES   REMARKS
CRAWFORDSVL +  SUNNY     79  64  59 S8        30.06S
GREENCASTLE +  MOSUNNY   81  64  57 CALM      30.07S
LAFAYETTE      MOSUNNY   81  68  64 SW7       30.03F
TERRE HAUTE    SUNNY     83  70  64 SW7       30.05F

$$

INZ030>032-037>040-046>048-054>057-064-065-061800-
CENTRAL INDIANA

CITY           SKY/WX    TMP DP  RH WIND       PRES   REMARKS
CP ATTERBURY + MOSUNNY   81  68  65 SW6       30.08S
FRANKFORT +    MOSUNNY   82  67  59 S10       30.07F
GREENWOOD *+   MOSUNNY   81  66  61 SW8       30.08S
INDIANAPOLIS   MOSUNNY   82  67  60 SW10      30.05R
-EAGLE CREEK   MOSUNNY   81  66  60 SW9       30.06R
KOKOMO *+      PTSUNNY   82  68  61 SW13      30.06S
MARION +       PTSUNNY   79  67  64 SW7       30.08R
MT COMFORT *+  MOSUNNY   81  61  50 S6        30.08R
SHELBYVILLE    SUNNY     82  69  64 S9        30.07S
ZIONSVILLE +   PTSUNNY   82  65  57 SW12      30.08S

$$

INZ033-034-041-042-049-050-058-059-061800-
EAST CENTRAL INDIANA

CITY           SKY/WX    TMP DP  RH WIND       PRES   REMARKS
MUNCIE         MOSUNNY   81  66  60 SW10      30.08R

$$

INZ060-061-067>069-081>083-085>088-061800-
SOUTHWEST INDIANA

CITY           SKY/WX    TMP DP  RH WIND       PRES   REMARKS
EVANSVILLE     MOSUNNY   84  72  67 SW14      30.07F
HUNTINGBURG *+ MOSUNNY   82  72  69 S9        30.07F
WASHINGTON +   MOSUNNY   83  68  61 SW9       30.05S

$$

INZ062-063-066-070>080-084-089>092-061800-
SOUTH CENTRAL AND SOUTHEAST INDIANA

CITY           SKY/WX    TMP DP  RH WIND       PRES   REMARKS
BLOOMINGTON    MOSUNNY   81  69  67 SW7       30.07F
MADISON *+     PTSUNNY   81  66  61 S6        30.11S
NORTH VERNON + MOSUNNY   84  66  54 S3        30.09S
SEYMOUR +      MOSUNNY   82  70  65 SW9       30.07S

$$



USA.gov is the U.S. government's official web portal to all federal, state and local government web resources and services.